Regional Weather Roundup
Issued by NWS Cleveland, OH

Home | Current Version | Previous Version | Graphics & Text | Print | Product List | Glossary On
Versions: 1 2 3 4 5 6 7 8 9 10 11 12 13 14 15 16 17 18 19 20 21 22 23 24 25 26 27 28 29 30 31 32 33 34 35 36 37 38 39 40 41 42 43 44 45 46 47 48 49 50
000
ASUS41 KCLE 040010
RWRCLE
OHIO REGIONAL WEATHER ROUNDUP
NATIONAL WEATHER SERVICE CLEVELAND, OH
800 PM EDT SUN MAY 03 2015

NOTE: "FAIR" INDICATES FEW OR NO CLOUDS BELOW 12,000 FEET WITH NO
SIGNIFICANT WEATHER AND/OR OBSTRUCTIONS TO VISIBILITY.

OHZ001>008-015>018-024>027-034-035-043-044-040100-
   NORTHWEST OHIO

CITY           SKY/WX    TMP DP  RH WIND       PRES   REMARKS
DEFIANCE       PTCLDY    75  45  34 SW7       30.02R
FINDLAY        PTCLDY    73  47  39 SW7       30.03S
TOLEDO EXPRESS MOCLDY    75  42  30 SW8       30.02R
TOLEDO EXEC    MOCLDY    75  45  34 SW7       30.03R
LIMA           PTCLDY    73  46  38 S7        30.05R
$$

OHZ009>014-019>023-028>033-038-089-040100-
   NORTHEAST OHIO

CITY           SKY/WX    TMP DP  RH WIND       PRES   REMARKS
CLE-HOPKINS    MOCLDY    72  44  36 SW9       30.07R
CLE-LAKEFRONT  MOCLDY    68  46  45 NE3       30.04R
CUY CO. ARPT   MOCLDY    73  45  35 S7        30.06S
LORAIN-ELYRIA  MOCLDY    71  46  40 SW8       30.06R
ASHTABULA      PTCLDY    70  39  32 CALM      30.07S
AKRON-CANTON   MOCLDY    69  43  38 SW8       30.08S
WOOSTER        PTCLDY    71  42  35 SW7       30.08S
MANSFIELD      MOCLDY    70  45  40 S7        30.08R
YOUNGSTOWN     PTCLDY    72  41  32 SW8       30.08R
$$

OHZ042-051>053-060>062-070>072-077>081-040100-
  SOUTHWEST OHIO

CITY           SKY/WX    TMP DP  RH WIND       PRES   REMARKS
CINC-COVINGTON PTCLDY    71  47  42 S7        30.07S
CINC-LUNKEN    CLEAR     69  52  54 S5        30.07R
HAMILTON       CLEAR     76  46  34 SW5       30.07R
DAYTON         PTCLDY    73  47  39 S9        30.07F
WRIGHT-PAT AFB MOCLDY    70  47  43 S7        30.06S
DAYTON GENERAL CLEAR     71  47  42 S6        30.06S
WILMINGTON     CLEAR     70  45  40 S6        30.08S
$$

OHZ036-037-039>041-045>050-054>059-063>069-073>076-082>088-040100-
  CENTRAL AND SOUTHEAST OHIO

CITY           SKY/WX    TMP DP  RH WIND       PRES   REMARKS
COLUMBUS       PTCLDY    74  44  34 SW10      30.07S
OSU AIRPORT    PTCLDY    72  44  36 S8        30.07S
BOLTON FIELD   PTCLDY    71  47  41 SW10G16   30.08S
RICKENBACK AFB PTCLDY    71  47  42 SW5       30.07R
NEWARK         PTCLDY    72  45  37 SW3       30.07R
MARION         PTCLDY    71  44  37 SW9       30.07R
LANCASTER      PTCLDY    73  43  33 SW3       30.08S
ZANESVILLE     PTCLDY    72  39  30 CALM      30.08S
NEW PHILLY     CLEAR     75  40  28 S3        30.09R
$$


USA.gov is the U.S. government's official web portal to all federal, state and local government web resources and services.